www.pogodaiklimat.ru

Погода и климат >> Архив погоды >> Боливия >> San Borja


ПОГОДА в San Borja

  • Прогноз погоды в San Borja
  • Монитор погоды в San Borja
  • Климат города

АРХИВ ПОГОДЫ в San Borja

Время (UTC), дата Ветер
(напр.,м/с)
 
Видим.   Явления Облачность Т
(С)
Тd
(С)
f
(%)
Тe
(С)
Тes
(С)
Комфортность P
(гПа)
Po
(гПа)
Тmin
(С)
Tmax
(С)
R
(мм)
R24
(мм)
S
(см)
12 15.10 ЮВ 2 20 км 8/5 450 м
[Sc Ci fib]
+25.2 +24.0 93 +35 +37 очень
душно
1011.2 988.7 +22.5
15 15.10 ЮВ 2 20 км 5/5 500 м
[Cu med, cong]
+32.0 +24.8 66 +45 +56 опасность
перегрева
1010.9 988.7
18 15.10 В 4 8000 м гроза без осадков 9/9 600 м
[Cb cap]
+31.0 +25.3 72 +45 +46 опасность
перегрева
1008.3 985.4
21 15.10 В 2 50 км {гроза, дождь} 9/6 700 м
[Cb cap Cs]
+24.8 +23.7 94 +34 +35 очень
душно
1006.2 983.2 +33.0
12 16.10 штиль 0 8000 м осадки на расстоянии {ливн. осадки} 8/4 700 м
[Cu Sc Ac trans]
+25.0 +23.6 92 +34 +36 очень
душно
1009.3 986.5 +22.0 4
15 16.10 З 2 50 км 5/5 600 м
[Cu med, cong]
+31.2 +24.8 69 +44 +54 опасность
перегрева
1008.8 985.9
18 16.10 СЗ 6 20 км 6/6 600 м
[Cu med, cong]
+34.4 +22.7 51 +44 +47 опасность
перегрева
1003.6 981.5
21 16.10 СЗ 8 20 км 8/3 600 м
[Cu hum Ci fib]
+34.8 +21.3 45 +42 +43 опасность
перегрева
1001.5 979.5 +35.8
12 17.10 СЗ 2 20 км 5/0
[Ci fib]
+26.9 +24.2 85 +37 +41 очень
душно
1005.7 983.6 +22.5
15 17.10 С 5 20 км 4/4 500 м
[Cu hum]
+34.4 +23.7 54 +46 +52 опасность
перегрева
1006.6 984.7
18 17.10 С 5 50 км 6/6 600 м
[Cb cap]
+36.4 +22.4 45 +46 +49 опасность
перегрева
1005.5 982.2
21 17.10 ЮЗ 2 8000 м осадки на расстоянии 9/4 600 м
[Cb cap Cs]
+31.9 +24.2 64 +44 +46 опасность
перегрева
1004.3 980.8 +37.2
12 18.10 СЗ 6 50 км 6/0
[Ci]
+27.2 +24.1 83 +38 +39 очень
душно
1008.3 985.4 +22.4
15 18.10 СЗ 6 50 км 6/3 600 м
[Cu hum Ci]
+32.3 +24.2 62 +44 +49 опасность
перегрева
1008.9 986.2
18 18.10 СЗ 3 20 км 6/4 600 м
[Cu hum Ci]
+36.1 +24.3 51 +48 +57 опасность
перегрева
1004.8 982.9
21 18.10 СЗ 3 20 км 5/1 600 м
[Cu hum Ci fib]
+36.0 +22.1 45 +45 +47 опасность
перегрева
1002.0 980.0 +37.2
12 19.10 штиль 0 20 км 8/0
[Ci]
+26.5 +23.6 84 +36 +41 очень
душно
1006.3 984.2 +22.7
15 19.10 СЗ 3 20 км 9/0
[Ci]
+32.1 +22.4 57 +42 +54 опасность
перегрева
1006.8 984.9
18 19.10 СЗ 5 20 км 4/1 600 м
[Cu hum Ci fib]
+35.9 +19.7 39 +41 +50 опасность
перегрева
1003.7 982.0
21 19.10 СЗ 3 20 км 5/0
[Ci fib]
+36.4 +20.0 38 +42 +45 опасность
перегрева
1002.1 979.9 +37.4
12 20.10 Ю 2 20 км 10/5 600 м
[Sc As op]
+24.9 +21.4 81 +32 +32 очень
душно
1010.4 988.1 +22.7
15 20.10 ЮВ 3 20 км 10/5 600 м
[Sc diur, vesp As op]
+27.5 +21.4 69 +35 +36 очень
душно
1011.1 988.9
18 20.10 ЮВ 3 20 км 10/5 600 м
[Cu med, cong Ci sp]
+29.9 +21.7 61 +38 +45 очень
душно
1009.2 987.1
21 20.10 ЮВ 2 20 км 10/4 600 м
[Cu hum Ac lent Cs]
+29.2 +21.9 65 +38 +39 очень
душно
1006.7 984.4 +31.0
12 21.10 штиль 0 20 км 4/0 2000 м
[Ac trans]
+26.1 +23.0 83 +35 +39 очень
душно
1010.1 987.7 +21.0
15 21.10 штиль 0 20 км 8/3 500 м
[Cu med, cong Ac trans Cc]
+33.0 +22.2 53 +42 +54 опасность
перегрева
1009.4 987.3
18 21.10 ЮВ 3 20 км 5/5 600 м
[Cu med, cong]
+34.5 +21.2 46 +42 +50 опасность
перегрева
1005.9 983.9
21 21.10 Ю 2 20 км 1/1 600 м
[Cu med, cong]
+35.4 +21.1 43 +42 +46 опасность
перегрева
1002.1 980.0 +36.0

 

Местоположение метеостанции San Borja (Боливия): широта -14.86 долгота -66.86 высота над уровнем моря 194 м.

В архиве по умолчанию представлена погода в San Borja за последнюю неделю. Архивные данные за месяц целиком и за предыдущие месяцы, начиная с января 2011 года, Вы можете получить, выбрав интересующий диапазон дат из раскрывающегося списка и нажав кнопку "Ввод!".


*Определитесь, кто Вы:
робот инопланетянин человек

Внимание! Время в таблицах - всемирное. Для получения местного времени необходимо прибавить поправку, которая в San Borja равна -4 ч.

Смотрите также архив погоды в соседних городах и на ближайших метеорологических станциях:

Погода в Santa Rosa (Боливия) (77 км)
Погода в Reyes (Боливия) (83 км)
Погода в Rurrenabaque (Боливия) (87 км)
Погода в San Ignacio De Moxo (Боливия) (136 км)
Погода в Santa Ana (Боливия) (197 км)
Погода в Baures (Боливия) (197 км)
Погода в Trinidad (Боливия) (210 км)
Погода в Ovejuyo (Боливия) (224 км)
Погода в La Paz (Боливия) (232 км)
Погода в San Ramon (Боливия) (291 км)

Пояснения к столбцам:

Ветер - указаны скорость ветра в м/с - средняя за 10 мин, порывы в срок и между сроками (в фигурных скобках) и направление, откуда дует ветер: С - северный, СВ - северо-восточный, В - восточный, ЮВ - юго-восточный, Ю - южный, ЮЗ - юго-западный, З - западный, СЗ - северо-западный.
Видимость - горизонтальная дальность видимости в метрах или километрах. При видимости от 1 до 10 км при отсутствии осадков обычно наблюдается дымка, при ухудшении видимости до 1 км и менее - туман. В сухую погоду видимость может ухудшаться дымом, пылью или мглою.
Явления - указаны атмосферные явления, наблюдавшиеся в срок или в последний час перед сроком; фигурными скобками обозначены явления, наблюдавшиеся между сроками (за 1-3 часа до срока); квадратными скобками обозначены град или гололедные отложения с указанием их диаметра в мм.
Облачность - указаны через наклонную черту общая и нижняя облачность в баллах и высота нижней границы облаков в метрах; квадратными скобками обозначены формы облаков: Ci - перистые, Cs - перисто-слоистые, Cc - перисто-кучевые, Ac - высококучевые, As - высокослоистые, Sc - слоисто-кучевые, Ns - слоисто-дождевые, Cu - кучевые, Cb - кучево-дождевые. Подробнее классификацию облаков см. в Атласе облаков (PDF).
T - Температура воздуха - температура, измеренная на высоте 2 м над землей.
Td - Температура точки росы - температура, при понижении до которой содержащийся в воздухе водяной пар достигнет насыщения.
f - Относительная влажность воздуха - влажноcть воздуха, измеренная на высоте 2 м над землей.
Te - Эффективная температура - температура, которую ощущает одетый по сезону человек в тени. Характеристика душности погоды. При расчете учитывается влияние влажности воздуха и скорости ветра на теплоощущения человека.
Tes - Эффективная температура на солнце - температура, которую ощущает человек, с поправкой на солнечный нагрев. Характеристика знойности погоды. Зависит от высоты солнца над горизонтом, облачности и скорости ветра. Ночью, в пасмурную погоду, а также при ветре 12 м/с и более поправка равна нулю.
P - Атмосферное давление - приведенное к уровню моря атмосферное давление.
Po - Атмосферное давление - измеренное на уровне метеостанции атмосферное давление.
Tmin - Минимальная температура - минимум температуры воздуха на высоте 2 м над землей.
Tmax - Максимальная температура - максимум температуры воздуха на высоте 2 м над землей.
R - Количество осадков - Количество выпавших осадков за период времени, мм. При наведении курсора мыши на число - период времени, за который выпало указанное количество осадков.
R24 - Количество осадков - Количество выпавших осадков за 24 часа, мм.
S - Снежный покров - Высота снежного покрова, см. При наведении курсора мыши на число - состояние снежного покрова и степень покрытия местности в баллах.